Regional Weather Roundup
Issued by NWS

Home | Current Version | Previous Version | Text Only | Print | Product List | Glossary On
Versions: 1 2 3 4 5 6 7 8 9 10 11 12 13 14 15 16 17 18 19 20 21 22 23 24 25 26 27 28 29 30 31 32 33 34 35 36 37 38 39 40 41 42 43 44 45 46 47 48 49 50
000
ASUS43 KMPX 211610
RWRMN
WEATHER ROUNDUP FOR MINNESOTA
NATIONAL WEATHER SERVICE TWIN CITIES/CHANHASSEN MN
1100 AM CDT MON AUG 21 2017


NOTE: "FAIR" INDICATES FEW OR NO CLOUDS BELOW 12,000 FEET WITH NO
SIGNIFICANT WEATHER AND/OR OBSTRUCTIONS TO VISIBILITY. N/A MEANS
CURRENT SKY AND/OR WEATHER CONDITIONS ARE NOT AVAILABLE.

MNZ060>063-068>070-211700-
   Twin Cities Metro

CITY           SKY/WX    TMP DP  RH WIND       PRES   REMARKS
TWIN CITIES    PTSUNNY   78  64  61 VRB3      29.99S
ST PAUL        CLOUDY    75  66  73 SE3       29.99F
CRYSTAL        CLOUDY    75  60  59 SW3       29.98F
BLAINE         PTSUNNY   75  64  69 CALM      29.99F
LAKEVILLE      SUNNY     73  68  83 CALM      30.00R
EDEN PRAIRIE   MOSUNNY   77  64  64 CALM      29.98R
SOUTH ST PAUL  MOSUNNY   74  65  72 SE3       29.99R
LAKE ELMO      FAIR      73  64  73 SE3       30.01S
$$
MNZ001>005-007-008-013>017-022>024-027-028-211700-
   Northwest Minnesota

CITY           SKY/WX    TMP DP  RH WIND       PRES   REMARKS
BEMIDJI        CLOUDY    68  52  56 S10G16    30.00F
HALLOCK        PTSUNNY   64  55  72 SE3       29.95F
ROSEAU         DRIZZLE   61  54  77 CALM      29.98F
WARROAD        LGT RAIN  61  54  77 S3        30.01S
THIEF RVR FALL CLOUDY    65  53  65 SE7       29.97
CROOKSTON      CLOUDY    66  55  68 S7        29.95F
FOSSTON        MOSUNNY   64  55  72 SE5       29.98F
DETROIT LAKES  CLOUDY    64  55  72 SE12      29.97F
MOORHEAD       CLOUDY    66  55  68 SE8       29.96F
PARK RAPIDS    CLOUDY    64  57  78 SE7       29.99F
MAHNOMEN       PTSUNNY   64  53  68 SE9       29.95F
$$
MNZ006-009>011-018-025>026-211700-
   North Central Minnesota

CITY           SKY/WX    TMP DP  RH WIND       PRES   REMARKS
BAUDETTE       CLOUDY    61  50  67 CALM      30.00F
FLAG ISLAND    CLOUDY    64  50  59 CALM      29.98S
INTL FALLS     PTSUNNY   65  53  65 SW3       30.03F
WASKISH        CLOUDY    68  55  64 S3        30.01F
BIG FORK       CLOUDY    63  57  82 CALM      30.04F
LONGVILLE      LGT RAIN  61  59  94 SE5       30.03F
GRAND RAPIDS   CLOUDY    63  55  75 S7        30.06F
CRANE LAKE     CLOUDY    64  54  68 CALM      30.05F
ORR            CLOUDY    64  52  63 CALM      30.03R
COOK           CLOUDY    63  55  77 CALM      30.05F
WALKER         CLOUDY    61  54  77 CALM      30.00F
$$
MNZ012-019>021-037-211700-
   Northeast Minnesota

CITY           SKY/WX    TMP DP  RH WIND       PRES   REMARKS
DULUTH         PTSUNNY   69  52  54 S5        30.05S
ELY            CLOUDY    66  54  63 CALM      30.04F
HIBBING        CLOUDY    63  54  72 S5        30.05F
EVELETH        CLOUDY    64  55  70 CALM      30.06S
DULUTH HARBOR  CLOUDY    66  61  82 N3        30.05R
TWO HARBORS    CLOUDY    72  61  68 CALM      30.03R
SILVER BAY     MOSUNNY   72  54  53 S5        30.02
GRAND MARAIS     N/A     67  59  75 SW5       30.01F
G MARAIS ARPRT CLOUDY    70  45  40 CALM      30.06F
$$
MNZ029>031-032-039>041-046>048-054>057-064-211700-
   West Central Minnesota

CITY           SKY/WX    TMP DP  RH WIND       PRES   REMARKS
FERGUS FALLS   CLOUDY    66  57  72 SE8       29.96S
WHEATON        CLOUDY    64  57  77 SE9       29.98F
MORRIS         CLOUDY    64  59  82 SE8       29.94F
ALEXANDRIA     CLOUDY    65  58  78 E10       29.99F
ELBOW LAKE     FAIR      67  59  76 SE20      29.95F
WADENA         CLOUDY    61  61 100 E8        29.98F
GLENWOOD       RAIN      63  59  88 E9        30.01F
APPLETON       LGT RAIN  63  57  82 SE7       29.97F
BENSON         LGT RAIN  63  61  94 S8        30.01F
ORTONVILLE     CLOUDY    61  57  88 MISG      29.96F
MADISON        LGT RAIN  63  63 100 SW6       30.02S
WILLMAR        FAIR      64  63  94 N5        30.05R
$$
MNZ033>034-036-042>043-049>051-058-059-211700-
   Central Minnesota

CITY           SKY/WX    TMP DP  RH WIND       PRES   REMARKS
ST CLOUD       PTSUNNY   70  60  70 N3        30.01S
SAUK CENTRE    LGT RAIN  65  58  79 E7        30.02F
PAYNESVILLE    CLOUDY    66  61  83 NE3       30.03R
AITKIN         CLOUDY    61  57  88 CALM      30.04F
PINE RIVER     LGT RAIN  57  55  94 SE7       30.05F
BRAINERD       CLOUDY    64  60  87 NE3       30.05F
STAPLES        CLOUDY    59  57  94 E5        30.01F
LONG PRAIRIE   LGT RAIN  63  57  82 NE3       30.02F
LITTLE FALLS   CLOUDY    64  55  72 CALM      30.03F
LITCHFIELD     CLOUDY    72  66  83 NE3       29.99F
BUFFALO        PTSUNNY   74  63  67 SE7       29.99F
MAPLE LAKE     LGT RAIN  70  65  83 E3        29.99F
HUTCHINSON     PTSUNNY   77  69  77 S6        30.00R
$$
MNZ037-044-045-052-053-211700-
   East Central Minnesota

CITY           SKY/WX    TMP DP  RH WIND       PRES   REMARKS
PRINCETON      PTSUNNY   73  61  64 NE5       30.00F
MORA           CLOUDY    68  57  68 CALM      30.04F
CAMBRIDGE      CLOUDY    75  61  60 CALM      30.01F
RUSH CITY      CLOUDY    71  58  64 CALM      30.01F
MOOSE LAKE     CLOUDY    64  57  77 CALM      30.04S
HINCKLEY       FAIR      70  61  73 N5        30.03S
CLOQUET        MOSUNNY   66  54  63 CALM      30.06R
MCGREGOR       CLOUDY    64  55  72 CALM      30.06F
$$
MNZ071>073-080-081-089-090-097-098-211700-
   Southwest Minnesota

CITY           SKY/WX    TMP DP  RH WIND       PRES   REMARKS
MONTEVIDEO     CLOUDY    63  61  94 N3        30.03S
GRANITE FALLS  CLOUDY    65  64  93 W8        30.03R
CANBY          TSTM      61  60  96 CALM      30.05S
MARSHALL       CLOUDY    63  62  97 NW12      30.03R FOG
REDWOOD FALLS  CLOUDY    73  65  75 S9        30.00R
OLIVIA         CLOUDY    73  68  83 S8        29.99R
PIPESTONE      RAIN      70  66  88 W3        30.04R
WINDOM         SUNNY     72  64  78 SW10      30.03R
WORTHINGTON    CLOUDY    71  67  87 VRB5      30.02S
JACKSON        MOSUNNY   72  64  78 W6        30.01F
TRACY          CLOUDY    67  67 100 SW5       30.03R FOG
SLAYTON        CLOUDY    68  63  82 SW8       30.04R
$$
MNZ065>067-074>077-082>085-091>093-211700-
   South Central Minnesota

CITY           SKY/WX    TMP DP  RH WIND       PRES   REMARKS
MANKATO        SUNNY     76  66  71 S6        29.99S
NEW ULM        CLOUDY    75  64  69 S10       29.99R
ST JAMES       MOSUNNY   75  66  73 S9        30.00R
FAIRMONT       SUNNY     75  66  73 SW12      30.00R
GLENCOE        MOSUNNY   76  67  74 S7        29.98S
FARIBAULT      MOSUNNY   73  68  83 E5        30.00R
OWATONNA       SUNNY     77  70  78 E3        30.01R
WASECA         SUNNY     77  64  65 SE6       30.01R
ALBERT LEA     SUNNY     79  66  65 SE8       30.00S
$$
MNZ078>079-086>088-094>096-211700-
   Southeast Minnesota

CITY           SKY/WX    TMP DP  RH WIND       PRES   REMARKS
ROCHESTER      SUNNY     77  68  73 SE8       30.00F
RED WING       CLOUDY    73  66  78 SE5       29.99S
STANTON        SUNNY     75  67  76 E5        29.98S
DODGE CENTER   SUNNY     77  64  65 E3        30.01R
WINONA         SUNNY     77  68  73 SE6       29.99F
AUSTIN         SUNNY     75  66  73 SE7       30.00S
PRESTON        CLOUDY    75  65  72 E7        30.03F
$$
ABBREVIATIONS USED IN REMARKS
   TC - TEMPERATURES IN CELSIUS
  WCI - WIND CHILL INDEX
   HX - HEAT INDEX
  VSB - VISIBILITY
$$




USA.gov is the U.S. government's official web portal to all federal, state and local government web resources and services.